| time (UTC) | temp F | wind direction | speed MPH | gust MPH | rain 1hr in | rain 24hr in | rain mn in | humidity % | barometer mb |
| 20260906212459 | 82 | 33 | 2.0 | 9.0 | 0.00 | 0.20 | 0.00 | 40 | 1015.4 |
| 20260906211959 | 82 | 19 | 3.0 | 10.0 | 0.00 | 0.20 | 0.00 | 40 | 1015.4 |
| 20260906211520 | 82 | 17 | 3.0 | 10.0 | 0.00 | 0.20 | 0.00 | 40 | 1015.5 |
| 20260906210959 | 82 | 11 | 3.0 | 12.0 | 0.00 | 0.20 | 0.00 | 40 | 1015.5 |
| 20260906210459 | 82 | 10 | 3.0 | 12.0 | 0.00 | 0.20 | 0.00 | 38 | 1015.5 |
| 20260906205959 | 82 | 9 | 4.0 | 11.0 | 0.00 | 0.20 | 0.00 | 40 | 1015.5 |
| 20260906205459 | 82 | 9 | 3.0 | 11.0 | 0.00 | 0.20 | 0.00 | 39 | 1015.5 |
| 20260906204959 | 83 | 17 | 3.0 | 10.0 | 0.00 | 0.20 | 0.00 | 39 | 1015.5 |
| 20260906204520 | 83 | 16 | 3.0 | 10.0 | 0.00 | 0.20 | 0.00 | 39 | 1015.4 |
| 20260906203959 | 83 | 16 | 3.0 | 12.0 | 0.00 | 0.20 | 0.00 | 39 | 1015.5 |
| 20260906203459 | 83 | 20 | 3.0 | 12.0 | 0.00 | 0.20 | 0.00 | 39 | 1015.5 |
| 20260906202959 | 83 | 12 | 3.0 | 9.0 | 0.00 | 0.20 | 0.00 | 39 | 1015.4 |
| 20260906202459 | 82 | 12 | 4.0 | 9.0 | 0.00 | 0.20 | 0.00 | 39 | 1015.3 |
| 20260906201959 | 83 | 17 | 2.0 | 9.0 | 0.00 | 0.20 | 0.00 | 37 | 1015.5 |
| 20260906201459 | 82 | 20 | 3.0 | 11.0 | 0.00 | 0.20 | 0.00 | 37 | 1015.6 |
| 20260906200959 | 83 | 21 | 3.0 | 11.0 | 0.00 | 0.20 | 0.00 | 38 | 1015.5 |
| 20260906200459 | 83 | 30 | 2.0 | 10.0 | 0.00 | 0.20 | 0.00 | 39 | 1015.4 |
| 20260906195959 | 82 | 22 | 2.0 | 8.0 | 0.00 | 0.20 | 0.00 | 39 | 1015.4 |
| 20260906195459 | 82 | 19 | 3.0 | 9.0 | 0.00 | 0.20 | 0.00 | 38 | 1015.5 |
| 20260906194959 | 82 | 20 | 3.0 | 9.0 | 0.00 | 0.20 | 0.00 | 39 | 1015.5 |
| 20260906194459 | 82 | 16 | 4.0 | 12.0 | 0.00 | 0.20 | 0.00 | 38 | 1015.5 |
| 20260906193958 | 81 | 18 | 3.0 | 12.0 | 0.00 | 0.20 | 0.00 | 39 | 1015.6 |
| 20260906193519 | 81 | 21 | 2.0 | 10.0 | 0.00 | 0.20 | 0.00 | 42 | 1015.6 |
| 20260906192959 | 81 | 10 | 4.0 | 13.0 | 0.00 | 0.20 | 0.00 | 41 | 1015.7 |
| 20260906192459 | 81 | 6 | 4.0 | 13.0 | 0.00 | 0.20 | 0.00 | 42 | 1015.6 |
| 20260906191959 | 81 | 7 | 4.0 | 10.0 | 0.00 | 0.20 | 0.00 | 42 | 1015.6 |
| 20260906191459 | 81 | 7 | 4.0 | 11.0 | 0.00 | 0.20 | 0.00 | 44 | 1015.6 |
| 20260906191020 | 81 | 16 | 3.0 | 11.0 | 0.00 | 0.20 | 0.00 | 43 | 1015.6 |
| 20260906190459 | 81 | 41 | 2.0 | 10.0 | 0.00 | 0.20 | 0.00 | 43 | 1015.7 |
| 20260906185959 | 81 | 42 | 3.0 | 10.0 | 0.00 | 0.20 | 0.00 | 43 | 1015.7 |
| 20260906185459 | 81 | 24 | 4.0 | 11.0 | 0.00 | 0.20 | 0.00 | 45 | 1015.6 |
| 20260906184959 | 81 | 21 | 4.0 | 11.0 | 0.00 | 0.20 | 0.00 | 46 | 1015.7 |
| 20260906184459 | 81 | 29 | 3.0 | 9.0 | 0.00 | 0.20 | 0.00 | 47 | 1015.7 |
| 20260906183959 | 81 | 17 | 3.0 | 11.0 | 0.00 | 0.20 | 0.00 | 48 | 1015.7 |
| 20260906183459 | 81 | 12 | 3.0 | 11.0 | 0.00 | 0.20 | 0.00 | 48 | 1015.7 |
| 20260906182959 | 81 | 17 | 3.0 | 11.0 | 0.00 | 0.20 | 0.00 | 48 | 1015.8 |
| 20260906182459 | 81 | 26 | 4.0 | 11.0 | 0.00 | 0.20 | 0.00 | 47 | 1015.8 |
| 20260906181959 | 81 | 22 | 3.0 | 11.0 | 0.00 | 0.20 | 0.00 | 48 | 1015.8 |
| 20260906181459 | 80 | 14 | 3.0 | 11.0 | 0.00 | 0.20 | 0.00 | 50 | 1015.9 |
| 20260906180959 | 80 | 22 | 3.0 | 9.0 | 0.00 | 0.20 | 0.00 | 49 | 1015.8 |
| 20260906180459 | 80 | 26 | 3.0 | 9.0 | 0.00 | 0.20 | 0.00 | 48 | 1015.8 |
| 20260906175959 | 80 | 27 | 3.0 | 12.0 | 0.00 | 0.20 | 0.00 | 50 | 1015.8 |
| 20260906175459 | 80 | 16 | 4.0 | 12.0 | 0.00 | 0.20 | 0.00 | 48 | 1015.8 |
| 20260906175020 | 80 | 12 | 4.0 | 13.0 | 0.00 | 0.20 | 0.00 | 48 | 1015.7 |
| 20260906174459 | 80 | 22 | 4.0 | 13.0 | 0.00 | 0.20 | 0.00 | 49 | 1015.8 |
| 20260906173959 | 80 | 22 | 3.0 | 11.0 | 0.00 | 0.20 | 0.00 | 48 | 1016.0 |
| 20260906173459 | 80 | 9 | 3.0 | 11.0 | 0.00 | 0.20 | 0.00 | 50 | 1016.0 |
| 20260906173020 | 80 | 6 | 4.0 | 11.0 | 0.00 | 0.20 | 0.00 | 50 | 1015.9 |
| 20260906172459 | 80 | 11 | 4.0 | 11.0 | 0.00 | 0.20 | 0.00 | 50 | 1016.0 |
| 20260906171959 | 80 | 17 | 3.0 | 10.0 | 0.00 | 0.20 | 0.00 | 50 | 1016.1 |
| 20260906171459 | 80 | 24 | 3.0 | 9.0 | 0.00 | 0.20 | 0.00 | 49 | 1016.0 |
| 20260906171000 | 80 | 30 | 3.0 | 10.0 | 0.00 | 0.20 | 0.00 | 51 | 1016.1 |
| 20260906170459 | 80 | 22 | 3.0 | 12.0 | 0.00 | 0.20 | 0.00 | 52 | 1016.1 |
| 20260906165959 | 80 | 27 | 3.0 | 12.0 | 0.00 | 0.20 | 0.00 | 49 | 1016.2 |
| 20260906165459 | 80 | 44 | 3.0 | 8.0 | 0.00 | 0.20 | 0.00 | 49 | 1016.2 |
| 20260906164959 | 80 | 35 | 3.0 | 9.0 | 0.00 | 0.20 | 0.00 | 50 | 1016.3 |
| 20260906164500 | 79 | 11 | 4.0 | 11.0 | 0.00 | 0.20 | 0.00 | 49 | 1016.3 |
| 20260906163959 | 79 | 8 | 4.0 | 11.0 | 0.00 | 0.20 | 0.00 | 49 | 1016.2 |
| 20260906163520 | 80 | 14 | 3.0 | 10.0 | 0.00 | 0.20 | 0.00 | 48 | 1016.3 |
| 20260906162959 | 80 | 18 | 3.0 | 9.0 | 0.00 | 0.20 | 0.00 | 50 | 1016.3 |
| 20260906162459 | 80 | 20 | 3.0 | 8.0 | 0.00 | 0.20 | 0.00 | 48 | 1016.3 |
| 20260906161959 | 79 | 19 | 3.0 | 8.0 | 0.00 | 0.20 | 0.00 | 51 | 1016.4 |
| 20260906161459 | 79 | 22 | 2.0 | 6.0 | 0.00 | 0.20 | 0.00 | 53 | 1016.5 |
| 20260906160959 | 79 | 21 | 2.0 | 6.0 | 0.00 | 0.20 | 0.00 | 54 | 1016.6 |
| 20260906160459 | 78 | 15 | 3.0 | 6.0 | 0.00 | 0.20 | 0.00 | 53 | 1016.7 |
| 20260906155959 | 78 | 13 | 3.0 | 8.0 | 0.00 | 0.20 | 0.00 | 55 | 1016.8 |
| 20260906155459 | 78 | 18 | 2.0 | 8.0 | 0.00 | 0.20 | 0.00 | 55 | 1016.7 |
| 20260906154959 | 78 | 35 | 2.0 | 9.0 | 0.00 | 0.20 | 0.00 | 58 | 1016.7 |
| 20260906154459 | 77 | 27 | 2.0 | 9.0 | 0.00 | 0.20 | 0.00 | 57 | 1016.7 |
| 20260906153959 | 77 | 22 | 2.0 | 5.0 | 0.00 | 0.20 | 0.00 | 57 | 1016.6 |
| 20260906153459 | 76 | 38 | 2.0 | 6.0 | 0.00 | 0.20 | 0.00 | 57 | 1016.6 |
| 20260906152959 | 76 | 36 | 2.0 | 8.0 | 0.00 | 0.20 | 0.00 | 56 | 1016.7 |
| 20260906152459 | 76 | 24 | 2.0 | 8.0 | 0.00 | 0.20 | 0.00 | 56 | 1016.8 |
| 20260906152000 | 76 | 16 | 3.0 | 8.0 | 0.00 | 0.20 | 0.00 | 56 | 1016.8 |
| 20260906151500 | 76 | 11 | 3.0 | 10.0 | 0.00 | 0.20 | 0.00 | 57 | 1016.7 |
| 20260906151000 | 75 | 9 | 4.0 | 11.0 | 0.00 | 0.20 | 0.00 | 58 | 1016.7 |
| 20260906150520 | 75 | 14 | 3.0 | 11.0 | 0.00 | 0.20 | 0.00 | 59 | 1016.7 |
| 20260906145959 | 75 | 10 | 4.0 | 11.0 | 0.00 | 0.20 | 0.00 | 59 | 1016.6 |
| 20260906145459 | 74 | 4 | 3.0 | 11.0 | 0.00 | 0.20 | 0.00 | 59 | 1016.6 |
| 20260906144959 | 74 | 9 | 2.0 | 9.0 | 0.00 | 0.20 | 0.00 | 63 | 1016.6 |
| 20260906144459 | 74 | 14 | 3.0 | 9.0 | 0.00 | 0.20 | 0.00 | 60 | 1016.5 |
| 20260906143959 | 73 | 42 | 3.0 | 10.0 | 0.00 | 0.20 | 0.00 | 62 | 1016.5 |
| 20260906143459 | 73 | 49 | 3.0 | 10.0 | 0.00 | 0.20 | 0.00 | 61 | 1016.4 |
| 20260906142959 | 73 | 33 | 3.0 | 12.0 | 0.00 | 0.20 | 0.00 | 62 | 1016.2 |
| 20260906142459 | 73 | 24 | 3.0 | 12.0 | 0.00 | 0.20 | 0.00 | 62 | 1016.1 |
| 20260906141959 | 72 | 31 | 3.0 | 9.0 | 0.00 | 0.20 | 0.00 | 64 | 1016.3 |
| 20260906141520 | 72 | 29 | 3.0 | 10.0 | 0.00 | 0.20 | 0.00 | 65 | 1016.3 |
| 20260906140959 | 72 | 37 | 3.0 | 10.0 | 0.00 | 0.20 | 0.00 | 65 | 1016.3 |
| 20260906140459 | 72 | 45 | 3.0 | 10.0 | 0.00 | 0.20 | 0.00 | 65 | 1016.1 |
| 20260906135959 | 71 | 27 | 3.0 | 10.0 | 0.00 | 0.20 | 0.00 | 65 | 1016.1 |
| 20260906135459 | 71 | 30 | 3.0 | 10.0 | 0.00 | 0.20 | 0.00 | 68 | 1016.1 |
| 20260906134959 | 71 | 32 | 3.0 | 11.0 | 0.00 | 0.20 | 0.00 | 68 | 1016.1 |
| 20260906134500 | 71 | 27 | 3.0 | 11.0 | 0.00 | 0.20 | 0.00 | 68 | 1016.0 |
| 20260906133959 | 70 | 45 | 2.0 | 6.0 | 0.00 | 0.20 | 0.00 | 69 | 1016.0 |
| 20260906133459 | 70 | 40 | 2.0 | 6.0 | 0.00 | 0.20 | 0.00 | 71 | 1016.0 |
| 20260906132959 | 70 | 38 | 2.0 | 6.0 | 0.00 | 0.20 | 0.00 | 71 | 1016.0 |
| 20260906132459 | 70 | 36 | 2.0 | 8.0 | 0.00 | 0.20 | 0.00 | 72 | 1016.0 |
| 20260906131959 | 70 | 25 | 3.0 | 9.0 | 0.00 | 0.20 | 0.00 | 71 | 1016.0 |
| 20260906131459 | 69 | 22 | 2.0 | 9.0 | 0.00 | 0.20 | 0.00 | 72 | 1016.0 |
| 20260906130959 | 69 | 32 | 2.0 | 6.0 | 0.00 | 0.20 | 0.00 | 73 | 1015.9 |
| 20260906130459 | 69 | 38 | 2.0 | 6.0 | 0.00 | 0.20 | 0.00 | 73 | 1015.9 |
| 20260906125959 | 69 | 37 | 2.0 | 6.0 | 0.00 | 0.20 | 0.00 | 74 | 1016.0 |
| 20260906125520 | 69 | 43 | 1.0 | 5.0 | 0.00 | 0.20 | 0.00 | 75 | 1015.9 |
| 20260906124959 | 68 | 47 | 1.0 | 5.0 | 0.00 | 0.20 | 0.00 | 76 | 1015.9 |
| 20260906124500 | 68 | 42 | 1.0 | 5.0 | 0.00 | 0.20 | 0.00 | 76 | 1015.8 |
| 20260906124000 | 68 | 36 | 1.0 | 4.0 | 0.00 | 0.20 | 0.00 | 77 | 1015.7 |
| 20260906123500 | 68 | 30 | 1.0 | 5.0 | 0.00 | 0.20 | 0.00 | 77 | 1015.7 |
| 20260906123000 | 68 | 27 | 1.0 | 5.0 | 0.00 | 0.20 | 0.00 | 77 | 1015.6 |
| 20260906122459 | 68 | 34 | 1.0 | 5.0 | 0.00 | 0.20 | 0.00 | 77 | 1015.5 |
| 20260906122000 | 68 | 26 | 1.0 | 5.0 | 0.00 | 0.20 | 0.00 | 78 | 1015.4 |
| 20260906121500 | 67 | 21 | 1.0 | 5.0 | 0.00 | 0.20 | 0.00 | 78 | 1015.4 |
| 20260906121000 | 67 | 34 | 1.0 | 5.0 | 0.00 | 0.20 | 0.00 | 78 | 1015.2 |
| 20260906120459 | 67 | 37 | 1.0 | 3.0 | 0.00 | 0.20 | 0.00 | 78 | 1015.2 |
| 20260906115959 | 67 | 26 | 1.0 | 4.0 | 0.00 | 0.20 | 0.00 | 79 | 1015.2 |
| 20260906115500 | 67 | 18 | 1.0 | 4.0 | 0.00 | 0.20 | 0.00 | 79 | 1015.1 |
| 20260906114959 | 67 | 23 | 1.0 | 4.0 | 0.00 | 0.20 | 0.00 | 79 | 1015.0 |
| 20260906114520 | 67 | 11 | 1.0 | 4.0 | 0.00 | 0.20 | 0.00 | 79 | 1014.9 |
| 20260906113959 | 67 | 8 | 1.0 | 4.0 | 0.00 | 0.20 | 0.00 | 80 | 1014.9 |
| 20260906113459 | 67 | 24 | 1.0 | 2.0 | 0.00 | 0.20 | 0.00 | 80 | 1014.9 |
| 20260906112959 | 67 | 29 | 1.0 | 4.0 | 0.00 | 0.20 | 0.00 | 81 | 1014.9 |
| 20260906112459 | 67 | 30 | 1.0 | 4.0 | 0.00 | 0.20 | 0.00 | 81 | 1014.8 |
| 20260906111959 | 67 | 23 | 1.0 | 5.0 | 0.00 | 0.20 | 0.00 | 81 | 1014.8 |
| 20260906111520 | 67 | 17 | 1.0 | 5.0 | 0.00 | 0.20 | 0.00 | 81 | 1014.6 |
| 20260906110959 | 67 | 14 | 1.0 | 3.0 | 0.00 | 0.20 | 0.00 | 81 | 1014.6 |
| 20260906110459 | 67 | 28 | 1.0 | 4.0 | 0.00 | 0.20 | 0.00 | 81 | 1014.6 |
| 20260906110000 | 67 | 39 | 1.0 | 4.0 | 0.00 | 0.20 | 0.00 | 81 | 1014.6 |
| 20260906105459 | 67 | 36 | 1.0 | 4.0 | 0.00 | 0.21 | 0.00 | 81 | 1014.5 |
| 20260906105020 | 67 | 27 | 1.0 | 2.0 | 0.00 | 0.21 | 0.00 | 81 | 1014.5 |
| 20260906104520 | 67 | 25 | 1.0 | 5.0 | 0.00 | 0.26 | 0.00 | 82 | 1014.4 |
| 20260906104021 | 68 | 28 | 2.0 | 5.0 | 0.00 | 0.30 | 0.00 | 82 | 1014.4 |
| 20260906103500 | 68 | 32 | 2.0 | 5.0 | 0.00 | 0.35 | 0.00 | 82 | 1014.3 |
| 20260906103000 | 68 | 40 | 1.0 | 4.0 | 0.00 | 0.43 | 0.00 | 82 | 1014.3 |
| 20260906102500 | 68 | 43 | 2.0 | 5.0 | 0.00 | 0.48 | 0.00 | 82 | 1014.3 |
| 20260906102000 | 68 | 34 | 1.0 | 5.0 | 0.00 | 0.48 | 0.00 | 83 | 1014.1 |
| 20260906101500 | 68 | 21 | 1.0 | 4.0 | 0.00 | 0.48 | 0.00 | 83 | 1014.1 |
| 20260906100959 | 68 | 20 | 1.0 | 4.0 | 0.00 | 0.48 | 0.00 | 83 | 1014.1 |
| 20260906100459 | 68 | 27 | 1.0 | 5.0 | 0.00 | 0.48 | 0.00 | 83 | 1013.9 |
| 20260906100000 | 68 | 26 | 2.0 | 5.0 | 0.00 | 0.48 | 0.00 | 83 | 1014.0 |
| 20260906095500 | 68 | 27 | 2.0 | 5.0 | 0.00 | 0.48 | 0.00 | 83 | 1014.0 |
| 20260906095021 | 69 | 29 | 2.0 | 5.0 | 0.00 | 0.48 | 0.00 | 83 | 1014.0 |
| 20260906094500 | 69 | 26 | 1.0 | 4.0 | 0.00 | 0.48 | 0.00 | 84 | 1013.8 |
| 20260906094021 | 69 | 18 | 1.0 | 5.0 | 0.00 | 0.48 | 0.00 | 84 | 1013.8 |
| 20260906093500 | 69 | 18 | 1.0 | 5.0 | 0.00 | 0.48 | 0.00 | 84 | 1013.8 |
| 20260906093021 | 69 | 26 | 1.0 | 5.0 | 0.00 | 0.48 | 0.00 | 84 | 1013.7 |
| 20260906092500 | 69 | 24 | 2.0 | 8.0 | 0.00 | 0.48 | 0.00 | 84 | 1013.7 |
| 20260906092000 | 69 | 19 | 2.0 | 8.0 | 0.00 | 0.48 | 0.00 | 84 | 1013.6 |
| 20260906091459 | 69 | 19 | 1.0 | 5.0 | 0.00 | 0.48 | 0.00 | 84 | 1013.6 |
| 20260906091020 | 69 | 14 | 2.0 | 5.0 | 0.00 | 0.48 | 0.00 | 84 | 1013.5 |
| 20260906090459 | 70 | 5 | 2.0 | 8.0 | 0.00 | 0.48 | 0.00 | 84 | 1013.5 |
| 20260906085959 | 70 | 11 | 2.0 | 8.0 | 0.00 | 0.48 | 0.00 | 84 | 1013.6 |
| 20260906085459 | 70 | 17 | 2.0 | 7.0 | 0.00 | 0.48 | 0.00 | 84 | 1013.5 |
| 20260906084959 | 70 | 15 | 1.0 | 5.0 | 0.00 | 0.48 | 0.00 | 84 | 1013.5 |
| 20260906084459 | 70 | 17 | 2.0 | 10.0 | 0.00 | 0.48 | 0.00 | 84 | 1013.4 |
| 20260906083959 | 70 | 24 | 2.0 | 10.0 | 0.00 | 0.48 | 0.00 | 84 | 1013.3 |
| 20260906083521 | 70 | 24 | 2.0 | 8.0 | 0.00 | 0.48 | 0.00 | 84 | 1013.4 |
| 20260906083000 | 71 | 18 | 2.0 | 8.0 | 0.00 | 0.48 | 0.00 | 84 | 1013.4 |
| 20260906082500 | 71 | 25 | 2.0 | 7.0 | 0.00 | 0.48 | 0.00 | 85 | 1013.3 |
| 20260906082000 | 71 | 29 | 2.0 | 6.0 | 0.00 | 0.48 | 0.00 | 85 | 1013.4 |
| 20260906081500 | 71 | 23 | 2.0 | 6.0 | 0.00 | 0.48 | 0.00 | 85 | 1013.4 |
| 20260906081000 | 71 | 22 | 2.0 | 6.0 | 0.00 | 0.48 | 0.00 | 85 | 1013.3 |
| 20260906080459 | 71 | 19 | 1.0 | 5.0 | 0.00 | 0.48 | 0.00 | 85 | 1013.3 |
| 20260906075959 | 72 | 9 | 1.0 | 5.0 | 0.00 | 0.48 | 0.00 | 85 | 1013.3 |
| 20260906075520 | 72 | 7 | 1.0 | 3.0 | 0.00 | 0.48 | 0.00 | 85 | 1013.3 |
| 20260906075020 | 72 | 10 | 1.0 | 5.0 | 0.00 | 0.48 | 0.00 | 85 | 1013.3 |
| 20260906074459 | 72 | 7 | 1.0 | 5.0 | 0.00 | 0.48 | 0.00 | 85 | 1013.3 |
| 20260906073959 | 72 | 5 | 1.0 | 4.0 | 0.00 | 0.48 | 0.00 | 85 | 1013.2 |
| 20260906073500 | 72 | 19 | 1.0 | 4.0 | 0.00 | 0.48 | 0.00 | 85 | 1013.1 |
| 20260906073000 | 72 | 20 | 1.0 | 4.0 | 0.00 | 0.48 | 0.00 | 85 | 1013.2 |
| 20260906072459 | 72 | 8 | 1.0 | 4.0 | 0.00 | 0.48 | 0.00 | 85 | 1013.2 |
| 20260906072000 | 72 | 10 | 1.0 | 5.0 | 0.00 | 0.48 | 0.00 | 85 | 1013.4 |
| 20260906071521 | 72 | 10 | 2.0 | 5.0 | 0.00 | 0.48 | 0.00 | 85 | 1013.4 |
| 20260906071000 | 72 | 13 | 1.0 | 5.0 | 0.00 | 0.48 | 0.00 | 85 | 1013.5 |
| 20260906070500 | 72 | 18 | 1.0 | 3.0 | 0.00 | 0.48 | 0.00 | 85 | 1013.5 |
| 20260906065959 | 72 | 15 | 1.0 | 3.0 | 0.00 | 0.48 | 0.00 | 85 | 1013.5 |
| 20260906065459 | 72 | 14 | 1.0 | 3.0 | 0.00 | 0.48 | 0.00 | 85 | 1013.4 |
| 20260906064959 | 72 | 16 | 1.0 | 4.0 | 0.00 | 0.48 | 0.00 | 85 | 1013.4 |
| 20260906064459 | 72 | 18 | 1.0 | 4.0 | 0.00 | 0.48 | 0.00 | 85 | 1013.4 |
| 20260906064000 | 72 | 26 | 1.0 | 3.0 | 0.00 | 0.48 | 0.00 | 85 | 1013.5 |
| 20260906063521 | 72 | 31 | 1.0 | 2.0 | 0.00 | 0.48 | 0.00 | 85 | 1013.5 |
| 20260906062959 | 72 | 9 | 1.0 | 3.0 | 0.00 | 0.48 | 0.00 | 85 | 1013.4 |
| 20260906062521 | 72 | 4 | 1.0 | 3.0 | 0.00 | 0.48 | 0.00 | 85 | 1013.4 |
| 20260906061959 | 73 | 5 | 0.0 | 3.0 | 0.00 | 0.48 | 0.00 | 85 | 1013.5 |
| 20260906061500 | 73 | 12 | 0.0 | 3.0 | 0.00 | 0.48 | 0.00 | 85 | 1013.5 |
| 20260906061000 | 73 | 28 | 1.0 | 2.0 | 0.00 | 0.48 | 0.00 | 85 | 1013.4 |
| 20260906060500 | 73 | 18 | 1.0 | 3.0 | 0.00 | 0.48 | 0.00 | 85 | 1013.4 |
| 20260906060000 | 73 | 17 | 1.0 | 3.0 | 0.00 | 0.48 | 0.00 | 85 | 1013.5 |
| 20260906055500 | 73 | 29 | 1.0 | 2.0 | 0.00 | 0.48 | 0.00 | 85 | 1013.5 |
| 20260906054959 | 73 | 21 | 1.0 | 2.0 | 0.00 | 0.48 | 0.00 | 85 | 1013.4 |
| 20260906054500 | 73 | 22 | 1.0 | 3.0 | 0.00 | 0.48 | 0.00 | 85 | 1013.4 |
| 20260906054000 | 73 | 30 | 0.0 | 3.0 | 0.00 | 0.48 | 0.00 | 85 | 1013.4 |
| 20260906053500 | 73 | 42 | 0.0 | 3.0 | 0.00 | 0.48 | 0.00 | 85 | 1013.4 |
| 20260906053000 | 73 | 47 | 0.0 | 3.0 | 0.00 | 0.48 | 0.00 | 85 | 1013.5 |
| 20260906052500 | 73 | 51 | 0.0 | 4.0 | 0.00 | 0.48 | 0.00 | 85 | 1013.4 |
| 20260906052000 | 73 | 27 | 1.0 | 4.0 | 0.00 | 0.48 | 0.00 | 85 | 1013.4 |
| 20260906051521 | 73 | 13 | 1.0 | 8.0 | 0.00 | 0.48 | 0.00 | 85 | 1013.4 |
| 20260906050959 | 73 | 8 | 1.0 | 8.0 | 0.00 | 0.48 | 0.00 | 85 | 1013.3 |
| 20260906050459 | 73 | 4 | 1.0 | 5.0 | 0.00 | 0.48 | 0.00 | 85 | 1013.3 |
| 20260906045959 | 73 | 8 | 1.0 | 5.0 | 0.00 | 0.48 | 0.00 | 85 | 1013.3 |
| 20260906045459 | 73 | 8 | 1.0 | 5.0 | 0.00 | 0.48 | 0.00 | 85 | 1013.3 |
| 20260906044959 | 73 | 5 | 1.0 | 4.0 | 0.00 | 0.48 | 0.00 | 85 | 1013.1 |
| 20260906044459 | 73 | 12 | 1.0 | 4.0 | 0.00 | 0.48 | 0.00 | 85 | 1013.0 |
| 20260906044000 | 73 | 17 | 0.0 | 4.0 | 0.00 | 0.48 | 0.00 | 85 | 1012.8 |
| 20260906043521 | 72 | 15 | 0.0 | 2.0 | 0.00 | 0.48 | 0.00 | 85 | 1012.8 |
| 20260906043020 | 72 | 355 | 0.0 | 1.0 | 0.00 | 0.48 | 0.00 | 85 | 1012.7 |
| 20260906042500 | 72 | 355 | 0.0 | 1.0 | 0.00 | 0.48 | 0.00 | 85 | 1012.6 |
| 20260906042000 | 72 | 355 | 0.0 | 1.0 | 0.00 | 0.48 | 0.00 | 85 | 1012.6 |
| 20260906041500 | 72 | 355 | 0.0 | 1.0 | 0.00 | 0.48 | 0.00 | 85 | 1012.6 |
| 20260906041000 | 72 | 355 | 0.0 | 1.0 | 0.00 | 0.48 | 0.00 | 85 | 1012.6 |
| 20260906040500 | 72 | 355 | 0.0 | 1.0 | 0.00 | 0.48 | 0.00 | 85 | 1012.6 |
| 20260906040000 | 72 | 355 | 0.0 | 1.0 | 0.00 | 0.48 | 0.00 | 85 | 1012.6 |
| 20260906035500 | 72 | 355 | 0.0 | 1.0 | 0.00 | 0.48 | 0.48 | 85 | 1012.7 |
| 20260906035000 | 72 | 355 | 0.0 | 1.0 | 0.00 | 0.48 | 0.48 | 85 | 1012.7 |
| 20260906034521 | 72 | 355 | 0.0 | 1.0 | 0.00 | 0.48 | 0.48 | 85 | 1012.7 |
| 20260906034021 | 72 | 355 | 0.0 | 1.0 | 0.00 | 0.48 | 0.48 | 85 | 1012.7 |
| 20260906033500 | 72 | 355 | 0.0 | 1.0 | 0.00 | 0.48 | 0.48 | 85 | 1012.7 |
| 20260906032959 | 72 | 355 | 0.0 | 2.0 | 0.00 | 0.48 | 0.48 | 85 | 1012.7 |
| 20260906032459 | 72 | 355 | 0.0 | 2.0 | 0.00 | 0.48 | 0.48 | 85 | 1012.6 |
| 20260906031959 | 72 | 355 | 0.0 | 1.0 | 0.00 | 0.48 | 0.48 | 85 | 1012.7 |
| 20260906031459 | 72 | 355 | 0.0 | 1.0 | 0.00 | 0.48 | 0.48 | 85 | 1012.5 |
| 20260906030959 | 72 | 355 | 0.0 | 2.0 | 0.00 | 0.48 | 0.48 | 85 | 1012.4 |
| 20260906030520 | 72 | 355 | 0.0 | 2.0 | 0.00 | 0.48 | 0.48 | 85 | 1012.4 |
| 20260906025959 | 72 | 355 | 0.0 | 1.0 | 0.00 | 0.48 | 0.48 | 85 | 1012.5 |
| 20260906025459 | 72 | 355 | 0.0 | 1.0 | 0.00 | 0.48 | 0.48 | 85 | 1012.5 |
| 20260906024959 | 72 | 0 | 0.0 | 0.0 | 0.00 | 0.48 | 0.48 | 85 | 1012.6 |
| 20260906024521 | 72 | 0 | 0.0 | 0.0 | 0.00 | 0.48 | 0.48 | 85 | 1012.7 |
| 20260906023959 | 72 | 0 | 0.0 | 0.0 | 0.00 | 0.48 | 0.48 | 85 | 1012.6 |
| 20260906023521 | 72 | 0 | 0.0 | 0.0 | 0.00 | 0.48 | 0.48 | 85 | 1012.7 |
| 20260906022959 | 72 | 0 | 0.0 | 0.0 | 0.00 | 0.48 | 0.48 | 85 | 1012.6 |
| 20260906022459 | 72 | 0 | 0.0 | 0.0 | 0.00 | 0.48 | 0.48 | 85 | 1012.6 |
| 20260906021959 | 72 | 0 | 0.0 | 0.0 | 0.00 | 0.48 | 0.48 | 85 | 1012.6 |
| 20260906021521 | 73 | 0 | 0.0 | 0.0 | 0.00 | 0.48 | 0.48 | 85 | 1012.6 |
| 20260906020959 | 73 | 355 | 0.0 | 1.0 | 0.00 | 0.48 | 0.48 | 85 | 1012.7 |
| 20260906020500 | 73 | 355 | 0.0 | 2.0 | 0.00 | 0.48 | 0.48 | 85 | 1012.6 |
| 20260906015959 | 73 | 358 | 0.0 | 3.0 | 0.00 | 0.48 | 0.48 | 85 | 1012.6 |
| 20260906015500 | 73 | 9 | 1.0 | 3.0 | 0.00 | 0.48 | 0.48 | 85 | 1012.7 |
| 20260906015000 | 73 | 32 | 0.0 | 2.0 | 0.00 | 0.48 | 0.48 | 85 | 1012.6 |
| 20260906014459 | 73 | 38 | 0.0 | 1.0 | 0.00 | 0.48 | 0.48 | 85 | 1012.6 |
| 20260906013959 | 73 | 39 | 0.0 | 1.0 | 0.00 | 0.48 | 0.48 | 85 | 1012.7 |
| 20260906013500 | 73 | 39 | 0.0 | 1.0 | 0.00 | 0.48 | 0.48 | 85 | 1012.7 |
| 20260906012959 | 73 | 39 | 0.0 | 1.0 | 0.00 | 0.48 | 0.48 | 85 | 1012.8 |
| 20260906012521 | 73 | 39 | 0.0 | 2.0 | 0.00 | 0.48 | 0.48 | 85 | 1012.8 |
| 20260906012000 | 73 | 39 | 0.0 | 2.0 | 0.00 | 0.48 | 0.48 | 85 | 1012.5 |
| 20260906011521 | 73 | 39 | 0.0 | 1.0 | 0.00 | 0.48 | 0.48 | 85 | 1012.2 |
| 20260906011000 | 73 | 39 | 0.0 | 1.0 | 0.00 | 0.48 | 0.48 | 84 | 1012.1 |
| 20260906010500 | 73 | 39 | 0.0 | 1.0 | 0.00 | 0.48 | 0.48 | 84 | 1012.1 |
| 20260906010000 | 73 | 39 | 0.0 | 1.0 | 0.00 | 0.48 | 0.48 | 85 | 1012.0 |
| 20260906005500 | 73 | 7 | 1.0 | 2.0 | 0.00 | 0.48 | 0.48 | 85 | 1012.1 |
| 20260906005000 | 73 | 249 | 1.0 | 2.0 | 0.00 | 0.48 | 0.48 | 85 | 1012.2 |
| 20260906004520 | 73 | 242 | 1.0 | 5.0 | 0.00 | 0.48 | 0.48 | 85 | 1012.2 |
| 20260906004021 | 73 | 241 | 1.0 | 5.0 | 0.01 | 0.48 | 0.48 | 85 | 1012.4 |
| 20260906003459 | 74 | 313 | 0.0 | 3.0 | 0.16 | 0.48 | 0.48 | 84 | 1012.0 |
| 20260906002959 | 74 | 0 | 0.0 | 0.0 | 0.20 | 0.48 | 0.48 | 84 | 1011.7 |
| 20260906002459 | 74 | 65 | 0.0 | 1.0 | 0.20 | 0.48 | 0.48 | 84 | 1011.7 |
| 20260906001959 | 74 | 65 | 0.0 | 2.0 | 0.20 | 0.48 | 0.48 | 84 | 1011.8 |
| 20260906001500 | 74 | 65 | 0.0 | 2.0 | 0.20 | 0.48 | 0.48 | 84 | 1011.8 |
| 20260906001021 | 74 | 130 | 0.0 | 2.0 | 0.20 | 0.48 | 0.48 | 84 | 1011.4 |
| 20260906000500 | 74 | 127 | 1.0 | 3.0 | 0.20 | 0.48 | 0.48 | 83 | 1011.3 |
| 20260906000000 | 74 | 106 | 1.0 | 3.0 | 0.20 | 0.48 | 0.48 | 82 | 1011.1 |
| 20260905235521 | 75 | 54 | 1.0 | 4.0 | 0.20 | 0.48 | 0.48 | 81 | 1011.1 |
| 20260905235000 | 76 | 1 | 2.0 | 10.0 | 0.20 | 0.48 | 0.48 | 79 | 1011.1 |
| 20260905234500 | 76 | 21 | 4.0 | 14.0 | 0.20 | 0.48 | 0.48 | 77 | 1011.1 |
| 20260905234000 | 78 | 34 | 5.0 | 14.0 | 0.19 | 0.47 | 0.47 | 75 | 1011.0 |
| 20260905233500 | 80 | 24 | 5.0 | 12.0 | 0.04 | 0.32 | 0.32 | 73 | 1012.1 |
| 20260905233000 | 82 | 17 | 5.0 | 15.0 | 0.00 | 0.28 | 0.28 | 67 | 1011.9 |
| 20260905232459 | 84 | 15 | 2.0 | 15.0 | 0.00 | 0.28 | 0.28 | 66 | 1011.8 |
| 20260905232000 | 84 | 234 | 0.0 | 1.0 | 0.00 | 0.28 | 0.28 | 70 | 1011.2 |
| 20260905231459 | 84 | 0 | 0.0 | 0.0 | 0.00 | 0.28 | 0.28 | 71 | 1010.9 |
| 20260905231000 | 84 | 0 | 0.0 | 0.0 | 0.00 | 0.28 | 0.28 | 72 | 1011.5 |
| 20260905230500 | 84 | 0 | 0.0 | 0.0 | 0.00 | 0.28 | 0.28 | 70 | 1011.3 |
| 20260905230000 | 85 | 0 | 0.0 | 0.0 | 0.00 | 0.28 | 0.28 | 69 | 1011.0 |
| 20260905225500 | 85 | 0 | 0.0 | 0.0 | 0.00 | 0.28 | 0.28 | 69 | 1010.8 |
| 20260905225000 | 86 | 0 | 0.0 | 0.0 | 0.00 | 0.28 | 0.28 | 68 | 1010.7 |
| 20260905224500 | 86 | 246 | 0.0 | 1.0 | 0.00 | 0.28 | 0.28 | 67 | 1011.0 |
| 20260905224000 | 87 | 246 | 0.0 | 1.0 | 0.00 | 0.28 | 0.28 | 64 | 1011.0 |
| 20260905223500 | 88 | 246 | 0.0 | 1.0 | 0.00 | 0.28 | 0.28 | 65 | 1010.9 |
| 20260905223000 | 88 | 246 | 0.0 | 2.0 | 0.00 | 0.28 | 0.28 | 63 | 1010.9 |
| 20260905222500 | 89 | 309 | 1.0 | 3.0 | 0.00 | 0.28 | 0.28 | 60 | 1010.9 |
| 20260905222000 | 89 | 343 | 1.0 | 3.0 | 0.00 | 0.28 | 0.28 | 58 | 1010.9 |
| 20260905221500 | 90 | 354 | 1.0 | 3.0 | 0.00 | 0.28 | 0.28 | 57 | 1011.0 |
| 20260905221000 | 91 | 339 | 1.0 | 4.0 | 0.00 | 0.28 | 0.28 | 56 | 1011.1 |
| 20260905220500 | 92 | 292 | 1.0 | 4.0 | 0.00 | 0.28 | 0.28 | 54 | 1011.1 |
| 20260905220000 | 92 | 282 | 1.0 | 3.0 | 0.00 | 0.28 | 0.28 | 54 | 1010.9 |
| 20260905215500 | 92 | 359 | 1.0 | 5.0 | 0.00 | 0.28 | 0.28 | 54 | 1010.8 |
| 20260905215020 | 92 | 18 | 1.0 | 5.0 | 0.00 | 0.28 | 0.28 | 55 | 1010.6 |
| 20260905214500 | 92 | 9 | 1.0 | 3.0 | 0.00 | 0.29 | 0.28 | 55 | 1010.8 |
| 20260905214000 | 92 | 13 | 1.0 | 7.0 | 0.00 | 0.29 | 0.28 | 56 | 1010.8 |
| 20260905213500 | 92 | 12 | 2.0 | 7.0 | 0.00 | 0.30 | 0.28 | 55 | 1010.7 |
| 20260905213000 | 92 | 5 | 2.0 | 6.0 | 0.00 | 0.53 | 0.28 | 55 | 1010.8 |